TimePDT,TemperatureF,Dew PointF,Humidity,Sea Level PressureIn,VisibilityMPH,Wind Direction,Wind SpeedMPH,Gust SpeedMPH,PrecipitationIn,Events,Conditions,WindDirDegrees,DateUTC
12:56 AM,57.9,51.1,78,30.03,10.0,Calm,Calm,-,N/A,,Clear,0,2013-03-30 07:56:00
1:56 AM,57.0,51.1,81,30.04,10.0,Calm,Calm,-,N/A,,Clear,0,2013-03-30 08:56:00
2:56 AM,57.0,51.1,81,30.02,10.0,NE,4.6,-,0.00,Rain,Light Rain,40,2013-03-30 09:56:00
3:56 AM,55.9,51.1,84,30.03,10.0,South,3.5,-,0.00,,Mostly Cloudy,180,2013-03-30 10:56:00
4:56 AM,55.9,52.0,87,30.01,10.0,SW,4.6,-,0.00,Rain,Light Rain,230,2013-03-30 11:56:00
5:56 AM,55.0,52.0,89,29.99,10.0,Calm,Calm,-,0.00,,Scattered Clouds,0,2013-03-30 12:56:00
6:56 AM,55.0,52.0,89,30.01,10.0,Calm,Calm,-,N/A,,Clear,0,2013-03-30 13:56:00
7:56 AM,54.0,52.0,93,30.02,10.0,ESE,3.5,-,N/A,,Scattered Clouds,120,2013-03-30 14:56:00
8:56 AM,55.9,52.0,87,30.03,10.0,Calm,Calm,-,N/A,,Mostly Cloudy,0,2013-03-30 15:56:00
9:56 AM,57.9,53.1,84,30.03,10.0,Calm,Calm,-,N/A,,Partly Cloudy,0,2013-03-30 16:56:00
10:56 AM,61.0,53.1,75,30.03,10.0,SE,4.6,-,N/A,,Partly Cloudy,140,2013-03-30 17:56:00
11:56 AM,64.9,52.0,63,30.02,10.0,SSE,5.8,-,N/A,,Mostly Cloudy,150,2013-03-30 18:56:00
12:56 PM,66.9,52.0,59,30.01,10.0,SSE,13.8,-,N/A,,Partly Cloudy,150,2013-03-30 19:56:00
1:56 PM,64.0,51.1,63,30.01,10.0,SSE,12.7,24.2,N/A,,Overcast,150,2013-03-30 20:56:00
2:56 PM,60.1,53.1,78,30.02,10.0,SSW,9.2,17.3,0.01,Rain,Light Rain,200,2013-03-30 21:56:00
3:56 PM,62.1,51.1,67,30.00,10.0,SSE,8.1,-,0.00,,Overcast,150,2013-03-30 22:56:00
4:56 PM,64.0,50.0,60,29.99,10.0,South,5.8,-,N/A,,Clear,180,2013-03-30 23:56:00
5:56 PM,64.9,48.9,56,29.98,10.0,SE,5.8,-,N/A,,Clear,140,2013-03-31 00:56:00
6:56 PM,63.0,46.0,54,29.99,10.0,South,8.1,-,N/A,,Clear,180,2013-03-31 01:56:00
7:56 PM,59.0,48.9,69,30.00,10.0,SSE,3.5,-,N/A,,Mostly Cloudy,150,2013-03-31 02:56:00
8:56 PM,59.0,46.0,62,30.02,10.0,SE,6.9,-,N/A,,Overcast,130,2013-03-31 03:56:00
9:56 PM,55.0,48.9,80,30.04,10.0,South,3.5,-,0.05,Rain,Light Rain,170,2013-03-31 04:56:00
10:56 PM,54.0,51.1,90,30.03,10.0,Calm,Calm,-,0.01,,Overcast,0,2013-03-31 05:56:00
11:56 PM,53.1,51.1,93,30.02,10.0,Calm,Calm,-,0.00,,Scattered Clouds,0,2013-03-31 06:56:00